STARLINK-4437, 53506

Orbit data source: Space-Track

STARLINK-4437, 53506 is a payload satellite owned by SpaceX/Seattle (US) in SSO that was launched on Fri, 12 Aug 2022 UTC via an FALCON 9 launch vehicle from the Air Force Western Test Range (AFWTR). Payload-class satellites include a variety of spacecraft equipped with specific instruments for various scientific and technological missions. These include communications satellites like Starlink; space stations such as the ISS; scientific satellites like the Hubble; Earth observation satellites from companies like Planet Labs, Umbra, and HawkEye 360; GPS; miniature CubeSats for education and research; and military/defense satellites.

Loading next visibility...
Identifier
53506, 2022-099AT
Orbit
SSO
Country
Flag of USUS
Related business
Manufacturer
SpaceX/Seattle
Mission
Operational Commercial Communications
Bus & Motor
STARLINK, Unknown motor
Mass
300 kg wet, ~275 kg dry
Launch date (UTC)
2022-08-12 (3 years ago)
Launch vehicle
FALCON 9
Launch site
Air Force Western Test Range (AFWTR)
Object type
Payload
Rocket body
Debris
Shape & HBR
Box + 1 Pan, 10.1 m
Radar Cross Section
13.562 m², Large (>1 m²)

Expand to show TLE details & history
Last TLE update: 11 hours ago

TLE from 11 hours ago
0 STARLINK-4437
1 53506U 22099AT  25346.91915440 -.00000104  00000-0 -29915-5 0  9992
2 53506  97.6026 105.6488 0001307  87.4382 272.6994 15.05642937182996
Epoch: 2025-12-12T22:03Z
TLE epoch observation values (Epoch: 2025-12-12T22:03:34.940Z)
Latitude
-0.00004°
Longitude
52.89935°
Altitude
552.555 km
Speed
7.586 km/s
True Right ascension
07h 02m 35s
True Declination
0° 00' 00"
Sunlit
Object was in full shadow at epoch
Visualization orbit readout
Latitude
Unknown
Longitude
Unknown
Altitude
Unknown
Speed
Unknown
Apparent Right ascension
Unknown
Apparent Declination
Unknown
Sunlit
N/A
Visualization observer readout
Local Sidereal Time
07:32:44
Azimuth
Unknown
Elevation
Unknown
Doppler factor
Unknown
Orbital elements
Apogee altitude
547.431 km
Perigee altitude
545.621 km
Semi-major axis
6,924.663 km
Eccentricity
0.00013
Inclination
97.6026°
RAAN
105.6488°
Arg. of periapsis
87.4382°
True anomaly
272.68444°
Mean anomaly
272.6994°
Eccentric anomaly
272.69192°
Mean motion
3.76656 °/min
Orbital period
95.58 mins
BSTAR
-0.0000029915
Loading maneuver chart data...
Computing Atmospheric mass density...
Loading historical data...
Loading historical data...
Loading historical data...
Loading historical data...
Loading historical data...
Loading historical data...
Loading historical data...

Documentation

Showing up to 5 results
|